Aberdeen, United Kingdom

2:01 AM BST on October 15, 2019 (GMT +0100)
Dyce

Weather History for EGPD - August, 2019

Change the Weather History Date:

Monday, August 26, 2019

  Actual Average Record
Temperature  
Mean Temperature 63 °F -  
Max Temperature 73 °F 61 °F 71 °F (1999)
Min Temperature 53 °F 46 °F 39 °F (2014)
Degree Days  
Heating Degree Days 2    
Growing Degree Days 13 (Base 50)    
Moisture  
Dew Point 55 °F    
Average Humidity 70    
Maximum Humidity 94    
Minimum Humidity 39    
Precipitation  
Precipitation 0.00 in 0.09 in - ()
Sea Level Pressure  
Sea Level Pressure 29.98 in    
Wind  
Wind Speed 8 mph ()    
Max Wind Speed 18 mph    
Max Gust Speed -    
Visibility 7.4 miles    
Events Fog    
Averages and records for this station are not official NWS values.
T = Trace of Precipitation, MM = Missing Value Source: Averaged Metar Reports

Daily Weather History Graph

Daily Weather History Graph

Search for Another Location

Airport or City:

Astronomy

Aug. 26, 2019 Rise Set
Actual Time 5:57 AM BST 8:22 PM BST
Civil Twilight 5:14 AM BST 9:04 PM BST
Nautical Twilight 4:19 AM BST 9:59 PM BST
Astronomical Twilight 3:09 AM BST 11:08 PM BST
Moon 12:23 AM BST (8/26) 6:20 PM BST (8/26)
Length of Visible Light 15h 49m
Length of Day
14h 25m
Waning Crescent, 21% of the Moon is Illuminated
Aug 26
Waning Crescent
Aug 30
New
Sep 6
First Quarter
Sep 14
Full
Sep 22
Last Quarter

Hourly Weather History & Observations

Time (BST) Temp. Dew Point Humidity Pressure Visibility Wind Dir Wind Speed Gust Speed Precip Events Conditions
12:00 AM 61 °F 54 °F 71% 30.03 in 12 mi SE 5.8 mph - -  
12:20 AM 60.8 °F 55.4 °F 82% 30.01 in 6.2 mi SE 10.4 mph - N/A   Unknown
12:50 AM 60.8 °F 55.4 °F 82% 30.01 in 6.2 mi SE 5.8 mph - N/A   Unknown
1:00 AM 59 °F 55 °F 81% 30.01 in 7 mi SE 5.8 mph - -  
1:20 AM 59.0 °F 53.6 °F 82% 30.01 in 6.2 mi SSE 4.6 mph - N/A   Unknown
1:50 AM 59.0 °F 55.4 °F 88% 30.01 in 5.6 mi SSE 4.6 mph - N/A   Unknown
2:00 AM 59 °F 55 °F 81% 30.00 in 8 mi South 4.6 mph - -  
2:20 AM 59.0 °F 55.4 °F 88% 29.98 in 6.2 mi SSE 4.6 mph - N/A   Unknown
2:50 AM 59.0 °F 55.4 °F 88% 29.98 in 6.2 mi SSE 3.5 mph - N/A   Unknown
3:00 AM 59 °F 56 °F 85% 29.99 in 7 mi SSE 4.6 mph - -  
3:50 AM 55.4 °F 53.6 °F 94% 29.98 in 5.0 mi SSE 6.9 mph - N/A   Unknown
4:00 AM 59 °F 55 °F 82% 29.99 in 7 mi SSE 5.8 mph - -  
4:20 AM 53.6 °F 51.8 °F 94% 29.98 in 3.1 mi SSE 5.8 mph - N/A   Haze
4:50 AM 55.4 °F 53.6 °F 94% 29.98 in 3.7 mi Variable 4.6 mph - N/A   Unknown
5:00 AM 56 °F 54 °F 90% 29.99 in 4 mi SSE 4.6 mph - -   Light Haze
5:20 AM 55.4 °F 53.6 °F 94% 29.98 in 5.0 mi Variable 1.2 mph - N/A   Unknown
5:50 AM 55.4 °F 53.6 °F 94% 29.98 in 6.2 mi SSE 3.5 mph - N/A Fog Unknown
6:00 AM 57 °F 55 °F 92% 29.98 in 9 mi South 3.5 mph - -  
6:20 AM 55.4 °F 53.6 °F 94% 29.98 in 6.2 mi Variable 3.5 mph - N/A Fog Unknown
6:50 AM 57.2 °F 55.4 °F 94% 29.98 in 6.2 mi SE 4.6 mph - N/A Fog Unknown
7:20 AM 60.8 °F 55.4 °F 82% 29.98 in - South 4.6 mph - N/A   Clear
7:50 AM 66.2 °F 57.2 °F 73% 29.98 in 6.2 mi SSW 4.6 mph - N/A   Unknown
8:00 AM 64 °F 56 °F 70% 29.98 in 22 mi SSW 4.6 mph - -  
8:20 AM 66.2 °F 57.2 °F 73% 29.98 in 6.2 mi Variable 2.3 mph - N/A   Unknown
8:50 AM 68.0 °F 57.2 °F 68% 29.98 in 6.2 mi SW 4.6 mph - N/A   Unknown
9:00 AM 67 °F 56 °F 58% 29.99 in 19 mi SW 4.6 mph - -  
9:20 AM 68.0 °F 57.2 °F 68% 29.98 in 6.2 mi South 5.8 mph - N/A   Unknown
9:50 AM 68.0 °F 57.2 °F 68% 29.98 in 6.2 mi SSW 9.2 mph - N/A   Unknown
10:00 AM 69 °F 55 °F 51% 29.99 in 22 mi SW 10.4 mph - -  
10:20 AM 69.8 °F 55.4 °F 60% 29.98 in 6.2 mi South 11.5 mph - N/A   Unknown
10:50 AM 69.8 °F 55.4 °F 60% 29.98 in 6.2 mi South 13.8 mph - N/A   Unknown
11:00 AM 70 °F 54 °F 48% 29.98 in 22 mi SSW 15.0 mph - -  
11:20 AM 69.8 °F 55.4 °F 60% 29.98 in 6.2 mi SSW 16.1 mph - N/A   Unknown
11:50 AM 69.8 °F 55.4 °F 60% 29.98 in 6.2 mi SW 13.8 mph - N/A   Unknown
12:20 PM 71.6 °F 53.6 °F 53% 29.98 in 6.2 mi SSW 17.3 mph - N/A   Unknown
12:50 PM 71.6 °F 55.4 °F 57% 29.98 in 6.2 mi SW 12.7 mph - N/A   Unknown
1:00 PM 72 °F 52 °F 39% 29.97 in 16 mi SW 12.7 mph - -  
1:20 PM 71.6 °F 55.4 °F 57% 29.98 in 6.2 mi SW 13.8 mph - N/A   Unknown
1:50 PM 73.4 °F 55.4 °F 53% 29.95 in 6.2 mi SSW 12.7 mph - N/A   Unknown
2:00 PM 72 °F 53 °F 41% 29.96 in 17 mi SW 12.7 mph - -  
2:20 PM 73.4 °F 55.4 °F 53% 29.95 in 6.2 mi SW 17.3 mph - N/A   Unknown
2:50 PM 73.4 °F 55.4 °F 53% 29.95 in 6.2 mi SSW 17.3 mph - N/A   Unknown
3:00 PM 72 °F 53 °F 41% 29.95 in 19 mi SW 17.3 mph - -  
3:20 PM 71.6 °F 53.6 °F 53% 29.95 in 6.2 mi South 17.3 mph - N/A   Unknown
3:50 PM 73.4 °F 55.4 °F 53% 29.95 in 6.2 mi SSW 16.1 mph - N/A   Unknown
4:00 PM 72 °F 53 °F 41% 29.94 in 22 mi SW 17.3 mph - -  
4:20 PM 71.6 °F 53.6 °F 53% 29.95 in 6.2 mi SSW 17.3 mph - N/A   Unknown
4:50 PM 71.6 °F 53.6 °F 53% 29.95 in 6.2 mi South 17.3 mph - N/A   Unknown
5:00 PM 72 °F 54 °F 42% 29.95 in 31 mi SSW 18.4 mph - -  
5:20 PM 71.6 °F 53.6 °F 53% 29.95 in 6.2 mi SSW 16.1 mph - N/A   Unknown
5:50 PM 71.6 °F 53.6 °F 53% 29.98 in 6.2 mi SSW 15.0 mph - N/A   Unknown
6:00 PM 71 °F 52 °F 40% 29.96 in 25 mi SSW 16.1 mph - -  
6:20 PM 69.8 °F 53.6 °F 56% 29.98 in 6.2 mi SSW 16.1 mph - N/A   Unknown
6:50 PM 69.8 °F 53.6 °F 56% 29.98 in 6.2 mi SSW 13.8 mph - N/A   Unknown
7:00 PM 69 °F 53 °F 47% 29.96 in 31 mi SSW 15.0 mph - -  
7:20 PM 64.4 °F 57.2 °F 77% 29.98 in 6.2 mi SSE 11.5 mph - N/A   Unknown
7:50 PM 64.4 °F 55.4 °F 73% 29.98 in 6.2 mi South 11.5 mph - N/A   Unknown
8:00 PM 64 °F 55 °F 66% 29.97 in 25 mi South 11.5 mph - -  
8:20 PM 62.6 °F 55.4 °F 77% 29.98 in 6.2 mi South 10.4 mph - N/A   Unknown
8:50 PM 60.8 °F 55.4 °F 82% 29.98 in 6.2 mi South 8.1 mph - N/A   Unknown
9:00 PM 60 °F 56 °F 81% 29.98 in 18 mi South 8.1 mph - -  
9:20 PM 59.0 °F 55.4 °F 88% 29.98 in - South 6.9 mph - N/A   Clear
9:50 PM 57.2 °F 53.6 °F 88% 29.98 in - South 6.9 mph - N/A   Clear
10:20 PM 57.2 °F 53.6 °F 88% 29.98 in - South 6.9 mph - N/A   Clear
10:50 PM 57.2 °F 55.4 °F 94% 29.98 in - SSE 3.5 mph - N/A   Clear
11:00 PM 57 °F 54 °F 88% 29.99 in 11 mi SSE 4.6 mph - -  
11:20 PM 57.2 °F 53.6 °F 88% 29.98 in - South 4.6 mph - N/A   Haze
11:50 PM 57.2 °F 53.6 °F 88% 29.98 in 6.2 mi South 2.3 mph - N/A   Unknown